Rbgn^[z[y[W
メイン
   新天体発見情報
     Comet C/2020 R4 (ATLAS)
投稿するにはまず登録を

スレッド表示 | 古いものから 前のトピック | 次のトピック | 下へ
投稿者 スレッド
佐藤裕久
投稿日時: 2020-9-23 1:12
モデレータ
登録日: 2005-6-12
居住地: 日本
投稿: 2505
オンライン
Comet C/2020 R4 (ATLAS)

J. Robinsonの通報によると、9月12日、ハワイ Mauna Loaにある小惑星地球衝突最終警報
システム Asteroid Terrestrial-impact Last Alert System (ATLAS)調査プログラムのコース
に0.5-m f/2 Schmidt反射望遠鏡で得たCCD画像から彗星を発見した。
4枚30秒の画像では、1".5-1".8のシーイングで拡散した10".3のコマが見える。
小惑星センターのPCCP webpageに公表後、A. Aletti (Varese, イタリア:9月13.1日UT,30秒露出
164枚スタック, 0.36-m f/6 Schmidt-Cassegrain 反射望遠鏡:完全に拡散した18.8等のコマと
p.a. 235°にかすかで7" の真っ直ぐな尾が見える)や佐藤英貴氏(東京都文京区, 9月13.7日UT,
60秒露出10枚のスタック,  iTelescope 0.51-m f/6.8 アストログラフ, Siding Spring, NSW, 
遠隔操作:強く集光した12" のコマとp.a. 275°に15"の幅広い尾が見える、6".5の円形範囲で
測定した光度は18.8等であった)ら、他のCCD位置観測者によって彗星状と観測された。

彗星機能の報告は次の通り:

OC   Date        Reporter           Coma    Tail    PA          Exposures
B49  2020-09-12  J. Camarasa        14"
568  2020-09-13  R. Weryk            6"      5"     230-350
204  2020-09-13  A. Aletti          10"      7"     235          164x30s
Q62  2020-09-13  H. Sato            12"     15"     275           10x60s
L01  2020-09-13  K. Korlevic        13"
106  2020-09-14  H. Mikuz           15"
246  2020-09-14  M. Tichy            5"      8"     220
L07  2020-09-15  E. Guido           10"      5"     310          131x30s
Q62  2020-09-15  N. Paul            12"     21"     332           10x60s
246  2020-09-15  M. Tichy            8"
Z08  2020-09-16  E. Guido            6"                           40x60s

発見位置は次のとおり、

     2020 UT             R.A. (2000) Decl.       Mag.
     Sept.12.49558    2 38 03.68   - 3 59 23.8   19.7
          12.50020    2 38 03.12   - 3 59 28.6   19.2
          12.50576    2 38 02.48   - 3 59 33.4   19.4
          12.51313    2 38 01.69   - 3 59 41.3   19.4

MPCの楕円軌道要素、位置推算表は次のとおり、

Orbital elements:
    C/2020 R4 (ATLAS)                                                           
T 2021 Mar. 2.15788 TT                                  Rudenko                 
q   1.0260988            (2000.0)            P               Q                  
z  +0.0132756      Peri.   46.96958     +0.12653281     -0.97896126             
                   Node   323.31735     -0.97010345     -0.15581314             
e   0.9863779      Incl.  164.45695     -0.20709596     +0.13174643             
From 85 observations 2020 Aug. 29-Sept. 16.                                     
                                                                                
Ephemeris:
Date    TT    R. A. (2000) Decl.     Delta      r    Elong.  Phase   m1
2020 08 17    03 06 13.9 +01 22 41   2.6721  3.0084    99.4    19.4  20.4
...
2020 09 01    02 54 43.2 -01 08 44   2.2402  2.8387   116.6    18.5  19.8
...
2020 09 09    02 44 01.3 -03 01 39   2.0242  2.7472   126.7    17.1  19.4
...
2020 09 15    02 33 14.6 -04 44 00   1.8734  2.6782   134.7    15.5  19.1
2020 09 16    02 31 11.0 -05 02 37   1.8495  2.6667   136.1    15.2  19.1
2020 09 17    02 29 02.7 -05 21 41   1.8259  2.6551   137.5    14.8  19.0
...
2020 09 23    02 14 26.1 -07 25 25   1.6935  2.5856   145.8    12.6  18.8
...
2020 10 01    01 49 50.4 -10 32 23   1.5456  2.4925   155.7     9.5  18.4
...
2020 10 16    00 48 18.1 -16 43 17   1.3839  2.3164   152.9    11.3  17.9

スレッド表示 | 古いものから 前のトピック | 次のトピック | トップ

投稿するにはまず登録を
 
© 1999 Tsutomu Seki.